<?xml version="1.0"?>
<gpx xmlns="http://www.topografix.com/GPX/1/1" xmlns:xsi="http://www.w3.org/2001/XMLSchema-instance" version="1.1" creator="GPX RubyGem 1.0.0 -- http://dougfales.github.io/gpx/" xsi:schemaLocation="http://www.topografix.com/GPX/1/1 http://www.topografix.com/GPX/1/1/gpx.xsd">
  <metadata>
    <name/>
    <time>2026-05-10T14:55:32+00:00</time>
    <bound minlat="90.0" minlon="180.0" maxlat="-90.0" maxlon="-180.0"/>
  </metadata>
  <trk>
    <name/>
    <trkseg>
      <trkpt lat="50.971443" lon="14.180228">
        <time>1970-01-01T00:00:00+00:00</time>
        <ele>257.0</ele>
      </trkpt>
      <trkpt lat="50.971505" lon="14.180271">
        <time>1970-01-01T00:00:00+00:00</time>
        <ele>257.0</ele>
      </trkpt>
      <trkpt lat="50.971552" lon="14.18035">
        <time>1970-01-01T00:00:00+00:00</time>
        <ele>257.0</ele>
      </trkpt>
      <trkpt lat="50.971603" lon="14.180392">
        <time>1970-01-01T00:00:00+00:00</time>
        <ele>257.0</ele>
      </trkpt>
      <trkpt lat="50.971654" lon="14.180412">
        <time>1970-01-01T00:00:00+00:00</time>
        <ele>257.0</ele>
      </trkpt>
      <trkpt lat="50.971671" lon="14.180417">
        <time>1970-01-01T00:00:00+00:00</time>
        <ele>257.0</ele>
      </trkpt>
      <trkpt lat="50.971825" lon="14.180443">
        <time>1970-01-01T00:00:00+00:00</time>
        <ele>257.0</ele>
      </trkpt>
      <trkpt lat="50.971898" lon="14.180434">
        <time>1970-01-01T00:00:00+00:00</time>
        <ele>258.0</ele>
      </trkpt>
      <trkpt lat="50.972183" lon="14.180213">
        <time>1970-01-01T00:00:00+00:00</time>
        <ele>260.0</ele>
      </trkpt>
      <trkpt lat="50.972393" lon="14.180074">
        <time>1970-01-01T00:00:00+00:00</time>
        <ele>260.0</ele>
      </trkpt>
      <trkpt lat="50.972829" lon="14.179901">
        <time>1970-01-01T00:00:00+00:00</time>
        <ele>261.0</ele>
      </trkpt>
      <trkpt lat="50.973589" lon="14.179706">
        <time>1970-01-01T00:00:00+00:00</time>
        <ele>267.0</ele>
      </trkpt>
      <trkpt lat="50.973862" lon="14.179573">
        <time>1970-01-01T00:00:00+00:00</time>
        <ele>271.0</ele>
      </trkpt>
      <trkpt lat="50.974022" lon="14.179436">
        <time>1970-01-01T00:00:00+00:00</time>
        <ele>272.0</ele>
      </trkpt>
      <trkpt lat="50.974271" lon="14.17913">
        <time>1970-01-01T00:00:00+00:00</time>
        <ele>272.0</ele>
      </trkpt>
      <trkpt lat="50.974392" lon="14.17891">
        <time>1970-01-01T00:00:00+00:00</time>
        <ele>274.0</ele>
      </trkpt>
      <trkpt lat="50.974693" lon="14.178272">
        <time>1970-01-01T00:00:00+00:00</time>
        <ele>275.0</ele>
      </trkpt>
      <trkpt lat="50.975743" lon="14.175779">
        <time>1970-01-01T00:00:00+00:00</time>
        <ele>279.0</ele>
      </trkpt>
      <trkpt lat="50.975921" lon="14.175419">
        <time>1970-01-01T00:00:00+00:00</time>
        <ele>278.0</ele>
      </trkpt>
      <trkpt lat="50.976049" lon="14.175248">
        <time>1970-01-01T00:00:00+00:00</time>
        <ele>279.0</ele>
      </trkpt>
      <trkpt lat="50.976266" lon="14.175057">
        <time>1970-01-01T00:00:00+00:00</time>
        <ele>282.0</ele>
      </trkpt>
      <trkpt lat="50.976364" lon="14.175011">
        <time>1970-01-01T00:00:00+00:00</time>
        <ele>283.0</ele>
      </trkpt>
      <trkpt lat="50.976609" lon="14.174999">
        <time>1970-01-01T00:00:00+00:00</time>
        <ele>286.0</ele>
      </trkpt>
      <trkpt lat="50.97672" lon="14.175033">
        <time>1970-01-01T00:00:00+00:00</time>
        <ele>287.0</ele>
      </trkpt>
      <trkpt lat="50.976888" lon="14.175139">
        <time>1970-01-01T00:00:00+00:00</time>
        <ele>288.0</ele>
      </trkpt>
      <trkpt lat="50.977094" lon="14.17533">
        <time>1970-01-01T00:00:00+00:00</time>
        <ele>289.0</ele>
      </trkpt>
      <trkpt lat="50.977213" lon="14.175433">
        <time>1970-01-01T00:00:00+00:00</time>
        <ele>288.0</ele>
      </trkpt>
      <trkpt lat="50.977472" lon="14.175628">
        <time>1970-01-01T00:00:00+00:00</time>
        <ele>284.0</ele>
      </trkpt>
      <trkpt lat="50.977607" lon="14.175683">
        <time>1970-01-01T00:00:00+00:00</time>
        <ele>284.0</ele>
      </trkpt>
      <trkpt lat="50.977796" lon="14.175713">
        <time>1970-01-01T00:00:00+00:00</time>
        <ele>285.0</ele>
      </trkpt>
      <trkpt lat="50.978809" lon="14.175715">
        <time>1970-01-01T00:00:00+00:00</time>
        <ele>291.0</ele>
      </trkpt>
      <trkpt lat="50.978824" lon="14.175891">
        <time>1970-01-01T00:00:00+00:00</time>
        <ele>291.0</ele>
      </trkpt>
      <trkpt lat="50.978868" lon="14.176096">
        <time>1970-01-01T00:00:00+00:00</time>
        <ele>292.0</ele>
      </trkpt>
      <trkpt lat="50.978938" lon="14.176237">
        <time>1970-01-01T00:00:00+00:00</time>
        <ele>292.0</ele>
      </trkpt>
      <trkpt lat="50.979142" lon="14.176549">
        <time>1970-01-01T00:00:00+00:00</time>
        <ele>292.0</ele>
      </trkpt>
      <trkpt lat="50.979475" lon="14.176843">
        <time>1970-01-01T00:00:00+00:00</time>
        <ele>291.0</ele>
      </trkpt>
      <trkpt lat="50.979775" lon="14.177148">
        <time>1970-01-01T00:00:00+00:00</time>
        <ele>296.0</ele>
      </trkpt>
      <trkpt lat="50.979962" lon="14.177492">
        <time>1970-01-01T00:00:00+00:00</time>
        <ele>299.0</ele>
      </trkpt>
      <trkpt lat="50.980162" lon="14.178081">
        <time>1970-01-01T00:00:00+00:00</time>
        <ele>307.0</ele>
      </trkpt>
      <trkpt lat="50.980247" lon="14.17867">
        <time>1970-01-01T00:00:00+00:00</time>
        <ele>312.0</ele>
      </trkpt>
      <trkpt lat="50.980239" lon="14.17944">
        <time>1970-01-01T00:00:00+00:00</time>
        <ele>318.0</ele>
      </trkpt>
      <trkpt lat="50.980265" lon="14.180177">
        <time>1970-01-01T00:00:00+00:00</time>
        <ele>316.0</ele>
      </trkpt>
      <trkpt lat="50.980265" lon="14.180311">
        <time>1970-01-01T00:00:00+00:00</time>
        <ele>314.0</ele>
      </trkpt>
      <trkpt lat="50.980321" lon="14.180565">
        <time>1970-01-01T00:00:00+00:00</time>
        <ele>311.0</ele>
      </trkpt>
      <trkpt lat="50.980328" lon="14.180702">
        <time>1970-01-01T00:00:00+00:00</time>
        <ele>311.0</ele>
      </trkpt>
      <trkpt lat="50.980283" lon="14.181238">
        <time>1970-01-01T00:00:00+00:00</time>
        <ele>306.0</ele>
      </trkpt>
      <trkpt lat="50.980326" lon="14.182797">
        <time>1970-01-01T00:00:00+00:00</time>
        <ele>303.0</ele>
      </trkpt>
      <trkpt lat="50.98047" lon="14.183708">
        <time>1970-01-01T00:00:00+00:00</time>
        <ele>303.0</ele>
      </trkpt>
      <trkpt lat="50.980653" lon="14.184623">
        <time>1970-01-01T00:00:00+00:00</time>
        <ele>305.0</ele>
      </trkpt>
      <trkpt lat="50.98076" lon="14.185173">
        <time>1970-01-01T00:00:00+00:00</time>
        <ele>305.0</ele>
      </trkpt>
      <trkpt lat="50.980811" lon="14.185438">
        <time>1970-01-01T00:00:00+00:00</time>
        <ele>306.0</ele>
      </trkpt>
      <trkpt lat="50.981086" lon="14.18592">
        <time>1970-01-01T00:00:00+00:00</time>
        <ele>307.0</ele>
      </trkpt>
      <trkpt lat="50.981306" lon="14.186158">
        <time>1970-01-01T00:00:00+00:00</time>
        <ele>304.0</ele>
      </trkpt>
      <trkpt lat="50.981381" lon="14.186245">
        <time>1970-01-01T00:00:00+00:00</time>
        <ele>304.0</ele>
      </trkpt>
      <trkpt lat="50.981508" lon="14.18632">
        <time>1970-01-01T00:00:00+00:00</time>
        <ele>303.0</ele>
      </trkpt>
      <trkpt lat="50.981711" lon="14.186383">
        <time>1970-01-01T00:00:00+00:00</time>
        <ele>303.0</ele>
      </trkpt>
      <trkpt lat="50.981894" lon="14.18648">
        <time>1970-01-01T00:00:00+00:00</time>
        <ele>306.0</ele>
      </trkpt>
      <trkpt lat="50.98213" lon="14.186694">
        <time>1970-01-01T00:00:00+00:00</time>
        <ele>307.0</ele>
      </trkpt>
      <trkpt lat="50.98274" lon="14.187067">
        <time>1970-01-01T00:00:00+00:00</time>
        <ele>312.0</ele>
      </trkpt>
      <trkpt lat="50.983103" lon="14.187153">
        <time>1970-01-01T00:00:00+00:00</time>
        <ele>313.0</ele>
      </trkpt>
      <trkpt lat="50.983352" lon="14.187237">
        <time>1970-01-01T00:00:00+00:00</time>
        <ele>314.0</ele>
      </trkpt>
      <trkpt lat="50.983576" lon="14.187275">
        <time>1970-01-01T00:00:00+00:00</time>
        <ele>315.0</ele>
      </trkpt>
      <trkpt lat="50.98369" lon="14.187237">
        <time>1970-01-01T00:00:00+00:00</time>
        <ele>314.0</ele>
      </trkpt>
      <trkpt lat="50.984093" lon="14.186901">
        <time>1970-01-01T00:00:00+00:00</time>
        <ele>314.0</ele>
      </trkpt>
      <trkpt lat="50.984272" lon="14.18687">
        <time>1970-01-01T00:00:00+00:00</time>
        <ele>315.0</ele>
      </trkpt>
      <trkpt lat="50.984352" lon="14.186949">
        <time>1970-01-01T00:00:00+00:00</time>
        <ele>315.0</ele>
      </trkpt>
      <trkpt lat="50.984401" lon="14.187048">
        <time>1970-01-01T00:00:00+00:00</time>
        <ele>314.0</ele>
      </trkpt>
      <trkpt lat="50.984454" lon="14.187326">
        <time>1970-01-01T00:00:00+00:00</time>
        <ele>313.0</ele>
      </trkpt>
      <trkpt lat="50.984458" lon="14.187794">
        <time>1970-01-01T00:00:00+00:00</time>
        <ele>313.0</ele>
      </trkpt>
      <trkpt lat="50.984884" lon="14.188395">
        <time>1970-01-01T00:00:00+00:00</time>
        <ele>316.0</ele>
      </trkpt>
      <trkpt lat="50.985181" lon="14.188736">
        <time>1970-01-01T00:00:00+00:00</time>
        <ele>317.0</ele>
      </trkpt>
      <trkpt lat="50.985423" lon="14.188911">
        <time>1970-01-01T00:00:00+00:00</time>
        <ele>317.0</ele>
      </trkpt>
      <trkpt lat="50.985369" lon="14.189052">
        <time>1970-01-01T00:00:00+00:00</time>
        <ele>316.0</ele>
      </trkpt>
      <trkpt lat="50.985349" lon="14.189295">
        <time>1970-01-01T00:00:00+00:00</time>
        <ele>315.0</ele>
      </trkpt>
      <trkpt lat="50.985433" lon="14.190075">
        <time>1970-01-01T00:00:00+00:00</time>
        <ele>318.0</ele>
      </trkpt>
      <trkpt lat="50.985451" lon="14.190439">
        <time>1970-01-01T00:00:00+00:00</time>
        <ele>319.0</ele>
      </trkpt>
      <trkpt lat="50.98545" lon="14.191249">
        <time>1970-01-01T00:00:00+00:00</time>
        <ele>321.0</ele>
      </trkpt>
      <trkpt lat="50.98543" lon="14.191742">
        <time>1970-01-01T00:00:00+00:00</time>
        <ele>322.0</ele>
      </trkpt>
      <trkpt lat="50.98543" lon="14.191742">
        <time>1970-01-01T00:00:00+00:00</time>
        <ele>322.0</ele>
      </trkpt>
      <trkpt lat="50.98545" lon="14.191249">
        <time>1970-01-01T00:00:00+00:00</time>
        <ele>321.0</ele>
      </trkpt>
      <trkpt lat="50.985451" lon="14.190439">
        <time>1970-01-01T00:00:00+00:00</time>
        <ele>319.0</ele>
      </trkpt>
      <trkpt lat="50.985433" lon="14.190075">
        <time>1970-01-01T00:00:00+00:00</time>
        <ele>318.0</ele>
      </trkpt>
      <trkpt lat="50.985349" lon="14.189295">
        <time>1970-01-01T00:00:00+00:00</time>
        <ele>315.0</ele>
      </trkpt>
      <trkpt lat="50.985369" lon="14.189052">
        <time>1970-01-01T00:00:00+00:00</time>
        <ele>316.0</ele>
      </trkpt>
      <trkpt lat="50.985423" lon="14.188911">
        <time>1970-01-01T00:00:00+00:00</time>
        <ele>317.0</ele>
      </trkpt>
      <trkpt lat="50.985181" lon="14.188736">
        <time>1970-01-01T00:00:00+00:00</time>
        <ele>317.0</ele>
      </trkpt>
      <trkpt lat="50.984884" lon="14.188395">
        <time>1970-01-01T00:00:00+00:00</time>
        <ele>316.0</ele>
      </trkpt>
      <trkpt lat="50.984458" lon="14.187794">
        <time>1970-01-01T00:00:00+00:00</time>
        <ele>313.0</ele>
      </trkpt>
      <trkpt lat="50.984454" lon="14.187326">
        <time>1970-01-01T00:00:00+00:00</time>
        <ele>313.0</ele>
      </trkpt>
      <trkpt lat="50.984401" lon="14.187048">
        <time>1970-01-01T00:00:00+00:00</time>
        <ele>314.0</ele>
      </trkpt>
      <trkpt lat="50.984352" lon="14.186949">
        <time>1970-01-01T00:00:00+00:00</time>
        <ele>315.0</ele>
      </trkpt>
      <trkpt lat="50.984272" lon="14.18687">
        <time>1970-01-01T00:00:00+00:00</time>
        <ele>315.0</ele>
      </trkpt>
      <trkpt lat="50.984093" lon="14.186901">
        <time>1970-01-01T00:00:00+00:00</time>
        <ele>314.0</ele>
      </trkpt>
      <trkpt lat="50.98369" lon="14.187237">
        <time>1970-01-01T00:00:00+00:00</time>
        <ele>314.0</ele>
      </trkpt>
      <trkpt lat="50.983576" lon="14.187275">
        <time>1970-01-01T00:00:00+00:00</time>
        <ele>315.0</ele>
      </trkpt>
      <trkpt lat="50.983352" lon="14.187237">
        <time>1970-01-01T00:00:00+00:00</time>
        <ele>314.0</ele>
      </trkpt>
      <trkpt lat="50.983103" lon="14.187153">
        <time>1970-01-01T00:00:00+00:00</time>
        <ele>313.0</ele>
      </trkpt>
      <trkpt lat="50.98274" lon="14.187067">
        <time>1970-01-01T00:00:00+00:00</time>
        <ele>312.0</ele>
      </trkpt>
      <trkpt lat="50.98213" lon="14.186694">
        <time>1970-01-01T00:00:00+00:00</time>
        <ele>307.0</ele>
      </trkpt>
      <trkpt lat="50.981894" lon="14.18648">
        <time>1970-01-01T00:00:00+00:00</time>
        <ele>306.0</ele>
      </trkpt>
      <trkpt lat="50.981711" lon="14.186383">
        <time>1970-01-01T00:00:00+00:00</time>
        <ele>303.0</ele>
      </trkpt>
      <trkpt lat="50.981508" lon="14.18632">
        <time>1970-01-01T00:00:00+00:00</time>
        <ele>303.0</ele>
      </trkpt>
      <trkpt lat="50.981381" lon="14.186245">
        <time>1970-01-01T00:00:00+00:00</time>
        <ele>304.0</ele>
      </trkpt>
      <trkpt lat="50.981306" lon="14.186158">
        <time>1970-01-01T00:00:00+00:00</time>
        <ele>304.0</ele>
      </trkpt>
      <trkpt lat="50.981086" lon="14.18592">
        <time>1970-01-01T00:00:00+00:00</time>
        <ele>307.0</ele>
      </trkpt>
      <trkpt lat="50.980811" lon="14.185438">
        <time>1970-01-01T00:00:00+00:00</time>
        <ele>306.0</ele>
      </trkpt>
      <trkpt lat="50.98076" lon="14.185173">
        <time>1970-01-01T00:00:00+00:00</time>
        <ele>305.0</ele>
      </trkpt>
      <trkpt lat="50.980653" lon="14.184623">
        <time>1970-01-01T00:00:00+00:00</time>
        <ele>305.0</ele>
      </trkpt>
      <trkpt lat="50.98047" lon="14.183708">
        <time>1970-01-01T00:00:00+00:00</time>
        <ele>303.0</ele>
      </trkpt>
      <trkpt lat="50.980326" lon="14.182797">
        <time>1970-01-01T00:00:00+00:00</time>
        <ele>303.0</ele>
      </trkpt>
      <trkpt lat="50.980283" lon="14.181238">
        <time>1970-01-01T00:00:00+00:00</time>
        <ele>306.0</ele>
      </trkpt>
      <trkpt lat="50.980328" lon="14.180702">
        <time>1970-01-01T00:00:00+00:00</time>
        <ele>311.0</ele>
      </trkpt>
      <trkpt lat="50.980321" lon="14.180565">
        <time>1970-01-01T00:00:00+00:00</time>
        <ele>311.0</ele>
      </trkpt>
      <trkpt lat="50.980265" lon="14.180311">
        <time>1970-01-01T00:00:00+00:00</time>
        <ele>314.0</ele>
      </trkpt>
      <trkpt lat="50.980265" lon="14.180177">
        <time>1970-01-01T00:00:00+00:00</time>
        <ele>316.0</ele>
      </trkpt>
      <trkpt lat="50.980239" lon="14.17944">
        <time>1970-01-01T00:00:00+00:00</time>
        <ele>318.0</ele>
      </trkpt>
      <trkpt lat="50.980247" lon="14.17867">
        <time>1970-01-01T00:00:00+00:00</time>
        <ele>312.0</ele>
      </trkpt>
      <trkpt lat="50.980162" lon="14.178081">
        <time>1970-01-01T00:00:00+00:00</time>
        <ele>307.0</ele>
      </trkpt>
      <trkpt lat="50.979962" lon="14.177492">
        <time>1970-01-01T00:00:00+00:00</time>
        <ele>299.0</ele>
      </trkpt>
      <trkpt lat="50.979775" lon="14.177148">
        <time>1970-01-01T00:00:00+00:00</time>
        <ele>296.0</ele>
      </trkpt>
      <trkpt lat="50.979475" lon="14.176843">
        <time>1970-01-01T00:00:00+00:00</time>
        <ele>291.0</ele>
      </trkpt>
      <trkpt lat="50.979142" lon="14.176549">
        <time>1970-01-01T00:00:00+00:00</time>
        <ele>292.0</ele>
      </trkpt>
      <trkpt lat="50.978938" lon="14.176237">
        <time>1970-01-01T00:00:00+00:00</time>
        <ele>292.0</ele>
      </trkpt>
      <trkpt lat="50.978868" lon="14.176096">
        <time>1970-01-01T00:00:00+00:00</time>
        <ele>292.0</ele>
      </trkpt>
      <trkpt lat="50.978824" lon="14.175891">
        <time>1970-01-01T00:00:00+00:00</time>
        <ele>291.0</ele>
      </trkpt>
      <trkpt lat="50.978809" lon="14.175715">
        <time>1970-01-01T00:00:00+00:00</time>
        <ele>291.0</ele>
      </trkpt>
      <trkpt lat="50.977796" lon="14.175713">
        <time>1970-01-01T00:00:00+00:00</time>
        <ele>285.0</ele>
      </trkpt>
      <trkpt lat="50.977607" lon="14.175683">
        <time>1970-01-01T00:00:00+00:00</time>
        <ele>284.0</ele>
      </trkpt>
      <trkpt lat="50.977472" lon="14.175628">
        <time>1970-01-01T00:00:00+00:00</time>
        <ele>284.0</ele>
      </trkpt>
      <trkpt lat="50.977213" lon="14.175433">
        <time>1970-01-01T00:00:00+00:00</time>
        <ele>288.0</ele>
      </trkpt>
      <trkpt lat="50.977094" lon="14.17533">
        <time>1970-01-01T00:00:00+00:00</time>
        <ele>289.0</ele>
      </trkpt>
      <trkpt lat="50.976888" lon="14.175139">
        <time>1970-01-01T00:00:00+00:00</time>
        <ele>288.0</ele>
      </trkpt>
      <trkpt lat="50.97672" lon="14.175033">
        <time>1970-01-01T00:00:00+00:00</time>
        <ele>287.0</ele>
      </trkpt>
      <trkpt lat="50.976609" lon="14.174999">
        <time>1970-01-01T00:00:00+00:00</time>
        <ele>286.0</ele>
      </trkpt>
      <trkpt lat="50.976364" lon="14.175011">
        <time>1970-01-01T00:00:00+00:00</time>
        <ele>283.0</ele>
      </trkpt>
      <trkpt lat="50.976266" lon="14.175057">
        <time>1970-01-01T00:00:00+00:00</time>
        <ele>282.0</ele>
      </trkpt>
      <trkpt lat="50.976049" lon="14.175248">
        <time>1970-01-01T00:00:00+00:00</time>
        <ele>279.0</ele>
      </trkpt>
      <trkpt lat="50.975921" lon="14.175419">
        <time>1970-01-01T00:00:00+00:00</time>
        <ele>278.0</ele>
      </trkpt>
      <trkpt lat="50.975743" lon="14.175779">
        <time>1970-01-01T00:00:00+00:00</time>
        <ele>279.0</ele>
      </trkpt>
      <trkpt lat="50.974693" lon="14.178272">
        <time>1970-01-01T00:00:00+00:00</time>
        <ele>275.0</ele>
      </trkpt>
      <trkpt lat="50.974392" lon="14.17891">
        <time>1970-01-01T00:00:00+00:00</time>
        <ele>274.0</ele>
      </trkpt>
      <trkpt lat="50.974271" lon="14.17913">
        <time>1970-01-01T00:00:00+00:00</time>
        <ele>272.0</ele>
      </trkpt>
      <trkpt lat="50.974022" lon="14.179436">
        <time>1970-01-01T00:00:00+00:00</time>
        <ele>272.0</ele>
      </trkpt>
      <trkpt lat="50.973862" lon="14.179573">
        <time>1970-01-01T00:00:00+00:00</time>
        <ele>271.0</ele>
      </trkpt>
      <trkpt lat="50.973589" lon="14.179706">
        <time>1970-01-01T00:00:00+00:00</time>
        <ele>267.0</ele>
      </trkpt>
      <trkpt lat="50.972829" lon="14.179901">
        <time>1970-01-01T00:00:00+00:00</time>
        <ele>261.0</ele>
      </trkpt>
      <trkpt lat="50.972393" lon="14.180074">
        <time>1970-01-01T00:00:00+00:00</time>
        <ele>260.0</ele>
      </trkpt>
      <trkpt lat="50.972183" lon="14.180213">
        <time>1970-01-01T00:00:00+00:00</time>
        <ele>260.0</ele>
      </trkpt>
      <trkpt lat="50.971898" lon="14.180434">
        <time>1970-01-01T00:00:00+00:00</time>
        <ele>258.0</ele>
      </trkpt>
      <trkpt lat="50.971825" lon="14.180443">
        <time>1970-01-01T00:00:00+00:00</time>
        <ele>257.0</ele>
      </trkpt>
      <trkpt lat="50.971671" lon="14.180417">
        <time>1970-01-01T00:00:00+00:00</time>
        <ele>257.0</ele>
      </trkpt>
      <trkpt lat="50.971654" lon="14.180412">
        <time>1970-01-01T00:00:00+00:00</time>
        <ele>257.0</ele>
      </trkpt>
      <trkpt lat="50.971603" lon="14.180392">
        <time>1970-01-01T00:00:00+00:00</time>
        <ele>257.0</ele>
      </trkpt>
      <trkpt lat="50.971552" lon="14.18035">
        <time>1970-01-01T00:00:00+00:00</time>
        <ele>257.0</ele>
      </trkpt>
      <trkpt lat="50.971505" lon="14.180271">
        <time>1970-01-01T00:00:00+00:00</time>
        <ele>257.0</ele>
      </trkpt>
      <trkpt lat="50.971443" lon="14.180228">
        <time>1970-01-01T00:00:00+00:00</time>
        <ele>257.0</ele>
      </trkpt>
    </trkseg>
  </trk>
</gpx>
